When you browse on this site, cookies collect data to enhance your experience and personalize the content and advertising you see.
Visit our Privacy Policy to learn more. By continuing to use the site, you agree to this use of cookies and data.
  • In Spain
  • List of Countries
  • For 7 days
  • Water Temperature
  • Satellite Maps
  • Weather Map
  • Weather Widgets
  • user-avatar
    Login

    Hourly Weather Golubica

    Today, 16 November, Friday

    Time Temperature Precipitation Wind Pressure Humidity
    00:00 -4°C° 0 mm 3 mps 764 mmHg 38%
    01:00 -5°C° 0 mm 3 mps 764 mmHg 35%
    02:00 -5°C° 0 mm 3 mps 765 mmHg 36%
    03:00 -5°C° 0 mm 3 mps 765 mmHg 35%
    04:00 -5°C° 0 mm 3 mps 765 mmHg 33%
    05:00 -5°C° 0 mm 3 mps 765 mmHg 32%
    06:00 -5°C° 0 mm 3 mps 765 mmHg 32%
    07:00 -5°C° 0 mm 3 mps 766 mmHg 31%
    08:00 -5°C° 0 mm 4 mps 766 mmHg 30%
    09:00 -4°C° 0 mm 4 mps 766 mmHg 28%
    10:00 -3°C° 0 mm 4 mps 766 mmHg 26%
    11:00 -2°C° 0 mm 4 mps 766 mmHg 24%
    12:00 -1°C° 0 mm 4 mps 766 mmHg 24%
    13:00 -1°C° 0 mm 4 mps 766 mmHg 24%
    14:00 -1°C° 0 mm 4 mps 766 mmHg 24%
    15:00 -2°C° 0 mm 4 mps 766 mmHg 25%
    16:00 -2°C° 0 mm 3 mps 766 mmHg 27%
    17:00 -4°C° 0 mm 3 mps 766 mmHg 28%
    18:00 -4°C° 0 mm 3 mps 766 mmHg 27%
    19:00 -4°C° 0 mm 3 mps 767 mmHg 26%
    20:00 -4°C° 0 mm 3 mps 767 mmHg 25%
    21:00 -4°C° 0 mm 3 mps 767 mmHg 25%
    22:00 -4°C° 0 mm 3 mps 767 mmHg 24%
    23:00 -4°C° 0 mm 3 mps 767 mmHg 24%

    Tomorrow, 17 November, Saturday

    Time Temperature Precipitation Wind Pressure Humidity
    00:00 -4°C° 0 mm 3 mps 766 mmHg 24%
    01:00 -4°C° 0 mm 2 mps 766 mmHg 23%
    02:00 -4°C° 0 mm 2 mps 766 mmHg 23%
    03:00 -4°C° 0 mm 2 mps 766 mmHg 23%
    04:00 -4°C° 0 mm 2 mps 766 mmHg 23%
    05:00 -4°C° 0 mm 2 mps 766 mmHg 22%
    06:00 -4°C° 0 mm 2 mps 765 mmHg 22%
    07:00 -4°C° 0 mm 2 mps 765 mmHg 21%
    08:00 -4°C° 0 mm 2 mps 765 mmHg 21%
    09:00 0°C° 0 mm 1 mps 765 mmHg 19%
    10:00 +1°C° 0 mm 1 mps 765 mmHg 17%
    11:00 +2°C° 0 mm 1 mps 765 mmHg 16%
    12:00 +2°C° 0 mm 1 mps 764 mmHg 17%
    13:00 +2°C° 0 mm 1 mps 763 mmHg 18%
    14:00 +2°C° 0 mm 1 mps 763 mmHg 20%
    15:00 +1°C° 0 mm 1 mps 762 mmHg 20%
    16:00 +1°C° 0 mm 1 mps 762 mmHg 20%
    17:00 0°C° 0 mm 1 mps 761 mmHg 21%
    18:00 0°C° 0 mm 1 mps 760 mmHg 21%
    19:00 -2°C° 0 mm 2 mps 760 mmHg 22%
    20:00 -2°C° 0 mm 2 mps 759 mmHg 22%
    21:00 -2°C° 0 mm 2 mps 759 mmHg 23%
    22:00 -2°C° 0 mm 3 mps 758 mmHg 24%
    23:00 -2°C° 0 mm 3 mps 757 mmHg 25%

    Day after tomorrow, 18 November, Sunday

    Time Temperature Precipitation Wind Pressure Humidity
    00:00 -2°C° 0 mm 3 mps 757 mmHg 27%
    01:00 -3°C° 0 mm 4 mps 756 mmHg 28%
    02:00 -3°C° 0 mm 4 mps 755 mmHg 30%
    03:00 -3°C° 0 mm 4 mps 754 mmHg 32%
    04:00 -3°C° 0 mm 4 mps 753 mmHg 35%
    05:00 -3°C° 0 mm 4 mps 752 mmHg 37%
    06:00 -3°C° 0 mm 4 mps 752 mmHg 43%
    07:00 -3°C° 0 mm 4 mps 751 mmHg 48%
    08:00 -3°C° 0 mm 4 mps 751 mmHg 54%
    09:00 -3°C° 0.1 mm 4 mps 751 mmHg 61%
    10:00 -3°C° 0.1 mm 4 mps 750 mmHg 67%
    11:00 -3°C° 0.1 mm 4 mps 750 mmHg 74%
    12:00 -2°C° 0 mm 3 mps 750 mmHg 76%
    13:00 -2°C° 0 mm 3 mps 749 mmHg 77%
    14:00 -2°C° 0 mm 3 mps 749 mmHg 79%
    15:00 -2°C° 0 mm 3 mps 749 mmHg 81%
    16:00 -2°C° 0 mm 2 mps 749 mmHg 84%
    17:00 -2°C° 0 mm 2 mps 749 mmHg 86%
    18:00 -2°C° 0 mm 2 mps 749 mmHg 88%
    19:00 -2°C° 0 mm 2 mps 749 mmHg 89%
    20:00 0°C° 0 mm 1 mps 749 mmHg 90%
    21:00 0°C° 0 mm 1 mps 749 mmHg 91%
    22:00 -1°C° 0 mm 1 mps 749 mmHg 93%
    23:00 -1°C° 0 mm 1 mps 749 mmHg 94%

    19 November, Monday

    Time Temperature Precipitation Wind Pressure Humidity
    00:00 -1°C° 0.1 mm 1 mps 750 mmHg 93%
    01:00 -1°C° 0.1 mm 1 mps 750 mmHg 93%
    02:00 -1°C° 0.1 mm 1 mps 750 mmHg 93%
    03:00 -1°C° 0.1 mm 1 mps 750 mmHg 92%
    04:00 -1°C° 0.1 mm 1 mps 750 mmHg 92%
    05:00 -1°C° 0.1 mm 1 mps 751 mmHg 91%
    06:00 -3°C° 0.1 mm 2 mps 751 mmHg 89%
    07:00 -3°C° 0.1 mm 2 mps 751 mmHg 87%
    08:00 -3°C° 0.1 mm 2 mps 752 mmHg 85%
    09:00 -2°C° 0 mm 2 mps 752 mmHg 78%
    10:00 -2°C° 0 mm 3 mps 753 mmHg 71%
    11:00 -1°C° 0 mm 3 mps 753 mmHg 64%
    12:00 -1°C° 0 mm 3 mps 753 mmHg 62%
    13:00 -1°C° 0 mm 3 mps 754 mmHg 60%
    14:00 -1°C° 0 mm 3 mps 754 mmHg 58%
    15:00 -2°C° 0 mm 3 mps 754 mmHg 60%
    16:00 -2°C° 0 mm 3 mps 754 mmHg 62%
    17:00 -4°C° 0 mm 3 mps 755 mmHg 65%
    18:00 -4°C° 0 mm 3 mps 755 mmHg 64%
    19:00 -2°C° 0 mm 3 mps 755 mmHg 63%
    20:00 -2°C° 0 mm 3 mps 756 mmHg 62%
    21:00 -3°C° 0 mm 4 mps 756 mmHg 64%
    22:00 -3°C° 0 mm 4 mps 756 mmHg 65%
    23:00 -3°C° 0 mm 4 mps 756 mmHg 67%

    20 November, Tuesday

    Time Temperature Precipitation Wind Pressure Humidity
    00:00 -3°C° 0 mm 4 mps 756 mmHg 66%
    01:00 -3°C° 0 mm 4 mps 757 mmHg 66%
    02:00 -3°C° 0 mm 4 mps 757 mmHg 65%
    03:00 -3°C° 0 mm 4 mps 757 mmHg 65%
    04:00 -3°C° 0 mm 4 mps 757 mmHg 64%
    05:00 -3°C° 0 mm 4 mps 757 mmHg 64%
    06:00 -3°C° 0 mm 4 mps 756 mmHg 62%
    07:00 -4°C° 0 mm 5 mps 756 mmHg 60%
    08:00 -4°C° 0 mm 5 mps 756 mmHg 58%
    09:00 -4°C° 0 mm 5 mps 756 mmHg 57%
    10:00 -2°C° 0 mm 5 mps 756 mmHg 56%
    11:00 -2°C° 0 mm 5 mps 756 mmHg 55%
    12:00 -2°C° 0 mm 5 mps 756 mmHg 61%
    13:00 -2°C° 0 mm 5 mps 755 mmHg 67%
    14:00 -2°C° 0 mm 5 mps 755 mmHg 73%
    15:00 -2°C° 0.1 mm 5 mps 755 mmHg 76%
    16:00 -2°C° 0.1 mm 5 mps 755 mmHg 79%
    17:00 -4°C° 0.1 mm 5 mps 755 mmHg 81%
    18:00 -4°C° 0.2 mm 5 mps 754 mmHg 83%
    19:00 -3°C° 0.2 mm 4 mps 754 mmHg 85%
    20:00 -3°C° 0.2 mm 4 mps 754 mmHg 87%
    21:00 -3°C° 0.1 mm 4 mps 754 mmHg 88%
    22:00 -2°C° 0.1 mm 3 mps 753 mmHg 89%
    23:00 -2°C° 0.1 mm 3 mps 753 mmHg 90%

    21 November, Wednesday

    Time Temperature Precipitation Wind Pressure Humidity
    00:00 -2°C° 0 mm 3 mps 753 mmHg 91%
    01:00 -2°C° 0 mm 3 mps 753 mmHg 91%
    02:00 -2°C° 0 mm 3 mps 752 mmHg 91%
    03:00 -2°C° 0 mm 2 mps 752 mmHg 92%
    04:00 -2°C° 0 mm 2 mps 752 mmHg 92%
    05:00 -2°C° 0 mm 2 mps 752 mmHg 92%
    06:00 -3°C° 0 mm 2 mps 752 mmHg 93%
    07:00 -3°C° 0 mm 2 mps 752 mmHg 93%
    08:00 -3°C° 0 mm 2 mps 752 mmHg 94%
    09:00 -2°C° 0 mm 3 mps 751 mmHg 92%
    10:00 -2°C° 0 mm 3 mps 751 mmHg 89%
    11:00 -1°C° 0 mm 3 mps 751 mmHg 86%
    12:00 -1°C° 0 mm 3 mps 751 mmHg 86%
    13:00 -2°C° 0 mm 4 mps 750 mmHg 86%
    14:00 -2°C° 0 mm 4 mps 750 mmHg 86%
    15:00 -2°C° 0 mm 4 mps 750 mmHg 87%
    16:00 -3°C° 0 mm 4 mps 749 mmHg 88%
    17:00 -3°C° 0 mm 4 mps 749 mmHg 90%
    18:00 -3°C° 0 mm 4 mps 749 mmHg 90%
    19:00 -4°C° 0 mm 5 mps 748 mmHg 89%
    20:00 -4°C° 0 mm 5 mps 748 mmHg 89%
    21:00 -4°C° 0 mm 5 mps 748 mmHg 89%
    22:00 -4°C° 0 mm 5 mps 748 mmHg 88%
    23:00 -4°C° 0 mm 5 mps 747 mmHg 88%
    Show more